NIMBUS 2 DEB, 38182

Orbit data source: Space-Track

NIMBUS 2 DEB, 38182 is space debris in SSO originally from a launch on Sun, 15 May 1966 UTC launched from the Air Force Western Test Range (AFWTR). Debris objects in space refer to the collection of defunct objects orbiting the Earth. Examples of debris include non-operational satellites, rocket bodies, and fragments generated from explosions, collisions, or faulty payload assembly.

Loading next visibility...
Identifier
38182, 1966-040BA
Orbit
SSO
Country
Flag of USUS
Related business
Manufacturer
Unknown
Mission
Spacecraft
Bus & Motor
Unknown
Mass
Unknown
Launch date (UTC)
1966-05-15 (60 years ago)
Launch vehicle
Unknown
Launch site
Air Force Western Test Range (AFWTR)
Object type
Payload
Rocket body
Debris
Shape & HBR
Unknown shape, 0.1 m
Radar Cross Section
Small (<0.1 m²)

Expand to show TLE details & history
Last TLE update: 3 weeks ago

TLE from 3 weeks ago
0 NIMBUS 2 DEB
1 38182U 66040BA  26149.38637263  .00003475  00000-0  46064-2 0  9999
2 38182 100.4602 204.2985 0070789  57.2903 320.0186 13.60516660604693
Epoch: 2026-05-29T09:16Z
TLE epoch observation values (Epoch: 2026-05-29T09:16:22.595Z)
Latitude
16.4828°
Longitude
175.17169°
Altitude
995.893 km
Speed
7.375 km/s
True Right ascension
13h 24m 43s
True Declination
16° 23' 33"
Sunlit
Object was in full shadow at epoch
Visualization orbit readout
Latitude
Unknown
Longitude
Unknown
Altitude
Unknown
Speed
Unknown
Apparent Right ascension
Unknown
Apparent Declination
Unknown
Sunlit
N/A
Visualization observer readout
Local Sidereal Time
02:14:36
Azimuth
Unknown
Elevation
Unknown
Doppler factor
Unknown
Orbital elements
Apogee altitude
1,083.592 km
Perigee altitude
978.693 km
Semi-major axis
7,409.28 km
Eccentricity
0.00708
Inclination
100.4602°
RAAN
204.2985°
Arg. of periapsis
57.2903°
True anomaly
319.49383°
Mean anomaly
320.0186°
Eccentric anomaly
319.75657°
Mean motion
3.40313 °/min
Orbital period
105.78 mins
BSTAR
0.0046064
Loading maneuver chart data...
Computing Atmospheric mass density...
Loading historical data...
Loading historical data...
Loading historical data...
Loading historical data...
Loading historical data...
Loading historical data...
Loading historical data...

Documentation

Showing up to 5 results
|